Location: ????????
(55.4000°N, 39.1167°E)
Time: 07:32:22
(UTC+00:00)

USA 59 Rocket - Pass Details

Date: 19 May 2025
Orbit: 373 x 1696 km, 63.3° (Epoch: 15 June)

Event Time Altitude Azimuth Distance (km) Brightness Sun altitude
Exits shadow 20:24:15 29° 162° (SSE) 767 0.0 -13.7°
Maximum altitude 20:24:58 33° 132° (SE) 683 -0.1 -13.7°
Drops below altitude 10° 20:27:41 10° 65° (ENE) 1,392 2.0 -13.8°
Sets 20:29:45 0° 55° (NE) 2,255 3.3 -13.9°
